Location: *
(38.9800°N, 16.0500°E)
Time: 05:33:37
(UTC+00:00)

Cosmos 1484 Rocket - Pass Details

Date: 07 April 2020
Orbit: 506 x 559 km, 97.4° (Epoch: 05 June)

Event Time Altitude Azimuth Distance (km) Brightness Sun altitude
Rises 03:32:07 0° 16° (NNE) 2,671 6.9 -11.9°
Reaches altitude 10° 03:34:16 10° 20° (NNE) 1,768 6.0 -11.5°
Maximum altitude 03:38:01 56° 100° (E) 619 3.4 -10.8°
Drops below altitude 10° 03:41:41 10° 179° (S) 1,729 5.2 -10.1°
Sets 03:43:47 0° 184° (S) 2,604 6.1 -9.7°
